IGO107P VAUD-VABB

Flight info

Callsign IGO107P
Flight time 1h 19m
Altitude 36000
Route BEGON Q2 AKTIV IGBAN2A
Aircraft A20N/M-SDE2E3FGHIRWXY/LB1

Departure

Time 2026-05-05 22:24
Airport Maharana Pratap Airport (VAUD)

Arrival

Time 2026-05-05 23:43
Airport Chhatrapati Shivaji Maharaj International Airport (VABB)
Time Latitude Longitude Altitude Speed Heading
2026-05-05 22:10 24.61914 73.89039 1687 ft 0 kts 349°
2026-05-05 22:16 24.61905 73.89041 1687 ft 2 kts 348°
2026-05-05 22:17 24.61889 73.89045 1693 ft 2 kts 349°
2026-05-05 22:17 24.61872 73.89048 1689 ft 2 kts 350°
2026-05-05 22:17 24.61856 73.89051 1689 ft 2 kts 351°
2026-05-05 22:17 24.61840 73.89054 1687 ft 2 kts 353°
2026-05-05 22:18 24.61823 73.89056 1688 ft 2 kts 355°
2026-05-05 22:18 24.61807 73.89057 1689 ft 2 kts
2026-05-05 22:18 24.61790 73.89054 1690 ft 2 kts 33°
2026-05-05 22:18 24.61782 73.89043 1690 ft 1 kts 83°
2026-05-05 22:19 24.61782 73.89041 1690 ft 0 kts 83°
2026-05-05 22:19 24.61782 73.89042 1690 ft 1 kts 83°
2026-05-05 22:19 24.61785 73.89065 1690 ft 5 kts 82°
2026-05-05 22:20 24.61792 73.89117 1690 ft 8 kts 82°
2026-05-05 22:20 24.61760 73.89152 1687 ft 8 kts 164°
2026-05-05 22:20 24.61708 73.89173 1690 ft 9 kts 123°
2026-05-05 22:20 24.61708 73.89255 1686 ft 14 kts 82°
2026-05-05 22:21 24.61727 73.89396 1684 ft 23 kts 80°
2026-05-05 22:21 24.61754 73.89589 1682 ft 27 kts 82°
2026-05-05 22:21 24.61783 73.89802 1681 ft 29 kts 81°
2026-05-05 22:21 24.61814 73.90028 1677 ft 31 kts 82°
2026-05-05 22:22 24.61846 73.90263 1682 ft 32 kts 82°
2026-05-05 22:22 24.61874 73.90472 1674 ft 24 kts 81°
2026-05-05 22:22 24.61905 73.90641 1684 ft 18 kts 57°
2026-05-05 22:22 24.61919 73.90704 1675 ft 3 kts 173°
2026-05-05 22:23 24.61902 73.90669 1680 ft 9 kts 254°
2026-05-05 22:23 24.61894 73.90601 1674 ft 13 kts 262°
2026-05-05 22:23 24.61838 73.90207 1680 ft 91 kts 262°
2026-05-05 22:23 24.61711 73.89272 1687 ft 153 kts 262°
2026-05-05 22:24 24.61541 73.87976 2001 ft 179 kts 262°
2026-05-05 22:24 24.61353 73.86600 2680 ft 180 kts 262°
2026-05-05 22:24 24.61152 73.85275 3472 ft 176 kts 262°
2026-05-05 22:24 24.60881 73.83897 3921 ft 195 kts 246°
2026-05-05 22:25 24.60005 73.82772 4303 ft 215 kts 211°
2026-05-05 22:25 24.58523 73.82304 4655 ft 236 kts 178°
2026-05-05 22:25 24.56825 73.82630 4986 ft 259 kts 163°
2026-05-05 22:25 24.55023 73.83207 5427 ft 281 kts 163°
2026-05-05 22:26 24.53088 73.83724 6131 ft 289 kts 172°
2026-05-05 22:26 24.51069 73.83717 6953 ft 292 kts 184°
2026-05-05 22:26 24.49030 73.83557 7777 ft 296 kts 185°
2026-05-05 22:26 24.46962 73.83376 8597 ft 300 kts 186°
2026-05-05 22:27 24.44864 73.83189 9470 ft 303 kts 186°
2026-05-05 22:27 24.42752 73.83003 10209 ft 311 kts 186°
2026-05-05 22:27 24.40515 73.82806 10510 ft 333 kts 186°
2026-05-05 22:27 24.38128 73.82599 10797 ft 354 kts 186°
2026-05-05 22:28 24.35650 73.82388 11467 ft 359 kts 186°
2026-05-05 22:28 24.33149 73.82177 12261 ft 362 kts 186°
2026-05-05 22:28 24.30743 73.81973 13009 ft 365 kts 186°
2026-05-05 22:28 24.28195 73.81756 13766 ft 369 kts 186°
2026-05-05 22:29 24.25618 73.81537 14419 ft 374 kts 186°
2026-05-05 22:29 24.23018 73.81316 15067 ft 378 kts 186°
2026-05-05 22:29 24.20375 73.81091 15709 ft 383 kts 186°
2026-05-05 22:29 24.17702 73.80865 16338 ft 387 kts 186°
2026-05-05 22:30 24.15007 73.80636 16965 ft 392 kts 186°
2026-05-05 22:30 24.12265 73.80404 17573 ft 396 kts 186°
2026-05-05 22:30 24.09501 73.80171 18191 ft 401 kts 186°
2026-05-05 22:30 24.06704 73.79934 18719 ft 404 kts 186°
2026-05-05 22:31 24.03893 73.79697 19257 ft 408 kts 186°
2026-05-05 22:31 24.01048 73.79458 19791 ft 411 kts 186°
2026-05-05 22:31 23.98179 73.79216 20308 ft 415 kts 186°
2026-05-05 22:31 23.95285 73.78973 20830 ft 419 kts 186°
2026-05-05 22:32 23.92370 73.78728 21335 ft 422 kts 186°
2026-05-05 22:32 23.89423 73.78480 21856 ft 426 kts 186°
2026-05-05 22:32 23.86452 73.78230 22346 ft 430 kts 187°
2026-05-05 22:32 23.83462 73.77979 22845 ft 433 kts 187°
2026-05-05 22:33 23.80446 73.77726 23339 ft 437 kts 187°
2026-05-05 22:33 23.77408 73.77471 23739 ft 440 kts 187°
2026-05-05 22:33 23.74334 73.77214 24156 ft 443 kts 187°
2026-05-05 22:33 23.71246 73.76955 24542 ft 447 kts 187°
2026-05-05 22:34 23.68139 73.76695 24921 ft 450 kts 188°
2026-05-05 22:34 23.65005 73.76432 25290 ft 453 kts 188°
2026-05-05 22:34 23.61849 73.76168 25659 ft 456 kts 188°
2026-05-05 22:34 23.58677 73.75903 26006 ft 459 kts 188°
2026-05-05 22:35 23.55529 73.75639 26347 ft 462 kts 188°
2026-05-05 22:35 23.52309 73.75370 26693 ft 465 kts 188°
2026-05-05 22:35 23.49073 73.75100 27016 ft 468 kts 188°
2026-05-05 22:35 23.45813 73.74828 27331 ft 471 kts 189°
2026-05-05 22:36 23.42538 73.74554 27639 ft 473 kts 189°
2026-05-05 22:36 23.39250 73.74280 27959 ft 476 kts 189°
2026-05-05 22:36 23.35941 73.74005 28262 ft 478 kts 189°
2026-05-05 22:36 23.32615 73.73728 28543 ft 481 kts 189°
2026-05-05 22:37 23.29273 73.73449 28835 ft 483 kts 189°
2026-05-05 22:37 23.25913 73.73170 29109 ft 485 kts 189°
2026-05-05 22:37 23.22542 73.72890 29384 ft 487 kts 189°
2026-05-05 22:37 23.19159 73.72608 29652 ft 489 kts 189°
2026-05-05 22:38 23.15754 73.72326 29918 ft 491 kts 189°
2026-05-05 22:38 23.12339 73.72042 30171 ft 492 kts 189°
2026-05-05 22:38 23.08924 73.71759 30434 ft 493 kts 189°
2026-05-05 22:38 23.05498 73.71475 30706 ft 494 kts 189°
2026-05-05 22:39 23.02072 73.71191 30986 ft 495 kts 189°
2026-05-05 22:39 22.98639 73.70907 31320 ft 494 kts 189°
2026-05-05 22:39 22.95218 73.70625 31686 ft 492 kts 189°
2026-05-05 22:39 22.91810 73.70343 32038 ft 490 kts 189°
2026-05-05 22:40 22.88410 73.70062 32383 ft 489 kts 189°
2026-05-05 22:40 22.85022 73.69782 32715 ft 487 kts 189°
2026-05-05 22:40 22.81653 73.69504 33030 ft 486 kts 189°
2026-05-05 22:40 22.78278 73.69224 33340 ft 485 kts 189°
2026-05-05 22:41 22.74920 73.68946 33641 ft 484 kts 189°
2026-05-05 22:41 22.71566 73.68669 33929 ft 483 kts 189°
2026-05-05 22:41 22.68217 73.68392 34183 ft 481 kts 189°
2026-05-05 22:41 22.64887 73.68117 34436 ft 480 kts 189°
2026-05-05 22:42 22.61565 73.67843 34682 ft 479 kts 190°
2026-05-05 22:42 22.58244 73.67568 34915 ft 478 kts 190°
2026-05-05 22:42 22.54929 73.67295 35137 ft 477 kts 190°
2026-05-05 22:42 22.51623 73.67022 35373 ft 476 kts 190°
2026-05-05 22:43 22.48324 73.66750 35602 ft 475 kts 190°
2026-05-05 22:43 22.46143 73.66571 35747 ft 475 kts 190°
2026-05-05 22:43 22.41737 73.66208 35833 ft 473 kts 190°
2026-05-05 22:44 22.36286 73.65759 35831 ft 473 kts 190°
2026-05-05 22:44 22.28669 73.65133 35828 ft 472 kts 189°
2026-05-05 22:45 22.23181 73.64683 35828 ft 472 kts 189°
2026-05-05 22:45 22.16628 73.64145 35828 ft 472 kts 189°
2026-05-05 22:46 22.10084 73.63609 35832 ft 472 kts 189°
2026-05-05 22:46 22.03541 73.63074 35834 ft 471 kts 189°
2026-05-05 22:47 21.97003 73.62539 35837 ft 471 kts 189°
2026-05-05 22:47 21.90459 73.62005 35850 ft 471 kts 189°
2026-05-05 22:48 21.83932 73.61472 35853 ft 471 kts 189°
2026-05-05 22:48 21.77402 73.60941 35851 ft 470 kts 189°
2026-05-05 22:49 21.70879 73.60409 35862 ft 470 kts 189°
2026-05-05 22:49 21.64347 73.59878 35859 ft 470 kts 189°
2026-05-05 22:50 21.57874 73.59351 35862 ft 470 kts 189°
2026-05-05 22:50 21.51317 73.58819 35869 ft 469 kts 189°
2026-05-05 22:51 21.44808 73.58291 35871 ft 469 kts 189°
2026-05-05 22:51 21.38345 73.57767 35870 ft 468 kts 189°
2026-05-05 22:52 21.31808 73.57238 35868 ft 468 kts 188°
2026-05-05 22:52 21.25317 73.56713 35862 ft 468 kts 188°
2026-05-05 22:53 21.18872 73.56192 35865 ft 467 kts 188°
2026-05-05 22:53 21.12444 73.55137 35648 ft 462 kts 199°
2026-05-05 22:53 21.09414 73.54178 35419 ft 459 kts 202°
2026-05-05 22:54 21.06368 73.53133 35188 ft 460 kts 201°
2026-05-05 22:54 21.03318 73.52098 34967 ft 460 kts 201°
2026-05-05 22:54 21.00260 73.51066 34732 ft 461 kts 201°
2026-05-05 22:54 20.97199 73.50036 34506 ft 462 kts 201°
2026-05-05 22:55 20.94133 73.49006 34282 ft 462 kts 201°
2026-05-05 22:55 20.91068 73.47976 34063 ft 463 kts 201°
2026-05-05 22:55 20.87953 73.46930 33834 ft 463 kts 201°
2026-05-05 22:55 20.84909 73.45908 33583 ft 464 kts 201°
2026-05-05 22:56 20.81842 73.44878 33336 ft 465 kts 201°
2026-05-05 22:56 20.78742 73.43838 33080 ft 466 kts 201°
2026-05-05 22:56 20.75638 73.42798 32833 ft 467 kts 201°
2026-05-05 22:56 20.72536 73.41758 32561 ft 468 kts 201°
2026-05-05 22:57 20.69423 73.40715 31946 ft 471 kts 201°
2026-05-05 22:57 20.66327 73.39677 31084 ft 477 kts 201°
2026-05-05 22:57 20.63170 73.38621 30499 ft 474 kts 201°
2026-05-05 22:57 20.60041 73.37576 29906 ft 470 kts 201°
2026-05-05 22:58 20.56933 73.36537 29316 ft 465 kts 201°
2026-05-05 22:58 20.53863 73.35512 28742 ft 460 kts 201°
2026-05-05 22:58 20.50836 73.34500 28171 ft 455 kts 201°
2026-05-05 22:58 20.47812 73.33490 27595 ft 451 kts 201°
2026-05-05 22:59 20.44829 73.32494 27034 ft 447 kts 201°
2026-05-05 22:59 20.41873 73.31507 26469 ft 444 kts 201°
2026-05-05 22:59 20.38923 73.30522 25879 ft 442 kts 201°
2026-05-05 22:59 20.36004 73.29548 25302 ft 440 kts 201°
2026-05-05 23:00 20.30198 73.27612 24221 ft 435 kts 201°
2026-05-05 23:00 20.27317 73.26652 23686 ft 433 kts 201°
2026-05-05 23:00 20.24436 73.25692 23073 ft 432 kts 201°
2026-05-05 23:01 20.21576 73.24765 22504 ft 428 kts 200°
2026-05-05 23:01 20.18727 73.23869 21910 ft 425 kts 200°
2026-05-05 23:01 20.15900 73.22985 21286 ft 423 kts 199°
2026-05-05 23:01 20.13100 73.22106 20898 ft 414 kts 199°
2026-05-05 23:02 20.10404 73.21263 20682 ft 393 kts 199°
2026-05-05 23:02 20.07843 73.20460 20505 ft 374 kts 199°
2026-05-05 23:02 20.05408 73.19695 20373 ft 358 kts 200°
2026-05-05 23:02 20.03089 73.18881 20261 ft 343 kts 210°
2026-05-05 23:03 20.01229 73.17456 20154 ft 321 kts 233°
2026-05-05 23:03 20.00126 73.15508 20047 ft 298 kts 257°
2026-05-05 23:03 19.99899 73.13487 19889 ft 281 kts 280°
2026-05-05 23:03 20.00515 73.11579 19638 ft 272 kts 306°
2026-05-05 23:04 20.01787 73.10091 19415 ft 276 kts 321°
2026-05-05 23:04 20.03408 73.08987 19186 ft 278 kts 335°
2026-05-05 23:04 20.05244 73.08379 18948 ft 278 kts 351°
2026-05-05 23:04 20.07174 73.08403 18725 ft 280 kts
2026-05-05 23:05 20.09051 73.08967 18507 ft 282 kts 14°
2026-05-05 23:05 20.10928 73.09565 18284 ft 282 kts 14°
2026-05-05 23:05 20.12809 73.10158 18054 ft 280 kts 14°
2026-05-05 23:05 20.14678 73.10746 17790 ft 280 kts 14°
2026-05-05 23:06 20.16529 73.11373 17532 ft 280 kts 22°
2026-05-05 23:06 20.18162 73.12506 17276 ft 284 kts 42°
2026-05-05 23:06 20.19329 73.14212 17020 ft 288 kts 64°
2026-05-05 23:06 20.19825 73.16269 16782 ft 291 kts 86°
2026-05-05 23:07 20.19563 73.18405 16540 ft 292 kts 109°
2026-05-05 23:07 20.18585 73.20267 16289 ft 290 kts 132°
2026-05-05 23:07 20.17039 73.21613 16051 ft 286 kts 154°
2026-05-05 23:07 20.15171 73.22259 15807 ft 281 kts 176°
2026-05-05 23:08 20.13243 73.22152 15562 ft 277 kts 197°
2026-05-05 23:08 20.11403 73.21562 15323 ft 275 kts 199°
2026-05-05 23:08 20.09586 73.20977 15088 ft 273 kts 198°
2026-05-05 23:08 20.07765 73.20402 14853 ft 271 kts 198°
2026-05-05 23:09 20.05969 73.19837 14618 ft 269 kts 198°
2026-05-05 23:09 20.04203 73.19284 14394 ft 268 kts 197°
2026-05-05 23:09 20.02268 73.18970 14179 ft 301 kts 186°
2026-05-05 23:09 20.00047 73.18774 13964 ft 339 kts 185°
2026-05-05 23:10 19.97607 73.18576 13738 ft 358 kts 185°
2026-05-05 23:10 19.95122 73.18381 13432 ft 358 kts 185°
2026-05-05 23:10 19.92660 73.18192 13077 ft 351 kts 185°
2026-05-05 23:10 19.90225 73.18003 12807 ft 351 kts 185°
2026-05-05 23:11 19.87795 73.17813 12552 ft 351 kts 185°
2026-05-05 23:11 19.85366 73.17623 12305 ft 349 kts 185°
2026-05-05 23:11 19.82949 73.17433 12065 ft 348 kts 185°
2026-05-05 23:11 19.80537 73.17243 11816 ft 346 kts 184°
2026-05-05 23:12 19.78137 73.17055 11569 ft 345 kts 184°
2026-05-05 23:12 19.75747 73.16868 11333 ft 344 kts 184°
2026-05-05 23:12 19.73369 73.16681 11088 ft 341 kts 184°
2026-05-05 23:12 19.71041 73.16497 10850 ft 331 kts 184°
2026-05-05 23:13 19.68775 73.16319 10615 ft 322 kts 184°
2026-05-05 23:13 19.66580 73.16146 10379 ft 313 kts 184°
2026-05-05 23:13 19.64439 73.15978 10144 ft 304 kts 184°
2026-05-05 23:13 19.62352 73.15814 9874 ft 298 kts 184°
2026-05-05 23:14 19.60297 73.15653 9506 ft 294 kts 184°
2026-05-05 23:14 19.58273 73.15495 9151 ft 290 kts 184°
2026-05-05 23:14 19.56270 73.15338 8812 ft 288 kts 184°
2026-05-05 23:14 19.54275 73.15181 8459 ft 290 kts 184°
2026-05-05 23:15 19.52255 73.15023 8122 ft 289 kts 184°
2026-05-05 23:15 19.50254 73.14949 7790 ft 290 kts 181°
2026-05-05 23:15 19.48227 73.14907 7452 ft 290 kts 181°
2026-05-05 23:15 19.46210 73.14864 7119 ft 289 kts 181°
2026-05-05 23:16 19.44195 73.14819 6796 ft 291 kts 181°
2026-05-05 23:16 19.42178 73.14776 6476 ft 290 kts 181°
2026-05-05 23:16 19.40159 73.14738 6142 ft 289 kts 181°
2026-05-05 23:16 19.38152 73.14708 5807 ft 288 kts 181°
2026-05-05 23:17 19.36152 73.14685 5473 ft 286 kts 181°
2026-05-05 23:17 19.34172 73.14669 5136 ft 283 kts 181°
2026-05-05 23:17 19.32211 73.14662 4802 ft 280 kts 181°
2026-05-05 23:17 19.30322 73.14661 4475 ft 278 kts 181°
2026-05-05 23:18 19.28426 73.14660 4196 ft 276 kts 181°
2026-05-05 23:18 19.26509 73.14658 3986 ft 275 kts 181°
2026-05-05 23:18 19.24612 73.14642 3837 ft 271 kts 183°
2026-05-05 23:18 19.22773 73.14330 3688 ft 260 kts 199°
2026-05-05 23:19 19.21120 73.13735 3577 ft 249 kts 200°
2026-05-05 23:19 19.19530 73.13155 3566 ft 235 kts 200°
2026-05-05 23:19 19.18023 73.12606 3560 ft 229 kts 200°
2026-05-05 23:19 19.16507 73.12055 3558 ft 229 kts 200°
2026-05-05 23:20 19.15008 73.11511 3527 ft 228 kts 200°
2026-05-05 23:20 19.13506 73.10966 3368 ft 226 kts 200°
2026-05-05 23:20 19.12023 73.10425 3246 ft 225 kts 200°
2026-05-05 23:20 19.10543 73.09883 3269 ft 226 kts 200°
2026-05-05 23:21 19.09057 73.09338 3292 ft 227 kts 200°
2026-05-05 23:21 19.07725 73.08492 3312 ft 225 kts 229°
2026-05-05 23:21 19.07032 73.07034 3340 ft 224 kts 262°
2026-05-05 23:21 19.07163 73.05542 3362 ft 224 kts 292°
2026-05-05 23:22 19.08098 73.04264 3513 ft 223 kts 321°
2026-05-05 23:22 19.09008 73.02967 3769 ft 222 kts 284°
2026-05-05 23:22 19.09156 73.01335 4246 ft 225 kts 270°
2026-05-05 23:22 19.09108 72.99667 4579 ft 229 kts 268°
2026-05-05 23:23 19.09055 72.97990 4585 ft 227 kts 269°
2026-05-05 23:23 19.09018 72.96330 4579 ft 222 kts 270°
2026-05-05 23:23 19.08861 72.94775 4544 ft 207 kts 249°
2026-05-05 23:23 19.07991 72.93603 4553 ft 210 kts 213°
2026-05-05 23:24 19.06567 72.93161 4576 ft 224 kts 179°
2026-05-05 23:24 19.05081 72.93630 4527 ft 227 kts 146°
2026-05-05 23:24 19.04039 72.94864 4249 ft 229 kts 114°
2026-05-05 23:24 19.03593 72.96491 3792 ft 234 kts 96°
2026-05-05 23:25 19.03522 72.98228 3320 ft 240 kts 90°
2026-05-05 23:25 19.03287 72.99967 2994 ft 237 kts 113°
2026-05-05 23:25 19.02353 73.01325 2906 ft 223 kts 134°
2026-05-05 23:25 19.01293 73.02456 2902 ft 214 kts 135°
2026-05-05 23:26 19.00225 73.03589 2897 ft 217 kts 135°
2026-05-05 23:26 18.99162 73.04715 2899 ft 216 kts 135°
2026-05-05 23:26 18.98100 73.05845 2898 ft 217 kts 132°
2026-05-05 23:26 18.97422 73.07238 2900 ft 216 kts 97°
2026-05-05 23:27 18.97603 73.08788 2900 ft 215 kts 63°
2026-05-05 23:27 18.98580 73.09947 2901 ft 214 kts 27°
2026-05-05 23:27 18.99995 73.10328 2907 ft 212 kts
2026-05-05 23:27 19.01460 73.10361 2897 ft 205 kts 360°
2026-05-05 23:28 19.02835 73.10381 2894 ft 190 kts 360°
2026-05-05 23:28 19.04164 73.10401 2903 ft 193 kts 360°
2026-05-05 23:28 19.05070 73.10414 2900 ft 192 kts 360°
2026-05-05 23:28 19.06405 73.10433 2903 ft 192 kts 360°
2026-05-05 23:29 19.07712 73.10243 2900 ft 190 kts 333°
2026-05-05 23:29 19.08656 73.09336 2891 ft 180 kts 297°
2026-05-05 23:29 19.09050 73.08124 2906 ft 176 kts 279°
2026-05-05 23:29 19.09155 73.06831 2901 ft 176 kts 271°
2026-05-05 23:30 19.09150 73.05564 2921 ft 172 kts 269°
2026-05-05 23:30 19.09133 73.04372 2896 ft 151 kts 269°
2026-05-05 23:30 19.09117 73.03244 2838 ft 155 kts 269°
2026-05-05 23:30 19.09100 73.02107 2631 ft 153 kts 269°
2026-05-05 23:31 19.09084 73.00995 2435 ft 152 kts 269°
2026-05-05 23:31 19.09068 72.99877 2241 ft 152 kts 269°
2026-05-05 23:31 19.09051 72.98765 2042 ft 151 kts 269°
2026-05-05 23:31 19.09035 72.97652 1849 ft 151 kts 269°
2026-05-05 23:32 19.09018 72.96538 1655 ft 151 kts 269°
2026-05-05 23:32 19.09002 72.95421 1454 ft 151 kts 269°
2026-05-05 23:32 19.08985 72.94327 1263 ft 150 kts 269°
2026-05-05 23:32 19.08969 72.93227 1070 ft 149 kts 269°
2026-05-05 23:33 19.08953 72.92128 883 ft 149 kts 269°
2026-05-05 23:33 19.08937 72.91038 691 ft 148 kts 269°
2026-05-05 23:33 19.08921 72.89959 506 ft 146 kts 269°
2026-05-05 23:33 19.08903 72.88888 324 ft 145 kts 268°
2026-05-05 23:34 19.08879 72.87752 708 ft 170 kts 268°
2026-05-05 23:34 19.08805 72.86432 1210 ft 185 kts 262°
2026-05-05 23:34 19.08388 72.85141 1830 ft 187 kts 236°
2026-05-05 23:34 19.07354 72.84442 2622 ft 178 kts 185°
2026-05-05 23:35 19.06274 72.84924 3331 ft 174 kts 126°
2026-05-05 23:35 19.05965 72.86130 3888 ft 174 kts 87°
2026-05-05 23:35 19.06057 72.87452 4172 ft 191 kts 89°
2026-05-05 23:35 19.06056 72.88904 4177 ft 201 kts 90°
2026-05-05 23:36 19.06046 72.90380 4116 ft 200 kts 90°
2026-05-05 23:36 19.06036 72.91849 3818 ft 202 kts 90°
2026-05-05 23:36 19.06027 72.93384 3350 ft 212 kts 90°
2026-05-05 23:36 19.06018 72.94943 2953 ft 210 kts 90°
2026-05-05 23:37 19.06009 72.96433 2809 ft 195 kts 90°
2026-05-05 23:37 19.06001 72.97887 2801 ft 201 kts 90°
2026-05-05 23:37 19.05994 72.99352 2802 ft 199 kts 90°
2026-05-05 23:37 19.05987 73.00811 2800 ft 199 kts 90°
2026-05-05 23:38 19.05979 73.02280 2800 ft 199 kts 90°
2026-05-05 23:38 19.05972 73.03741 2800 ft 199 kts 88°
2026-05-05 23:38 19.06373 73.05111 2801 ft 198 kts 53°
2026-05-05 23:38 19.07469 73.05936 2801 ft 197 kts 14°
2026-05-05 23:39 19.08786 73.05763 2718 ft 195 kts 327°
2026-05-05 23:39 19.09549 73.04633 2646 ft 195 kts 280°
2026-05-05 23:39 19.09432 73.03216 2572 ft 196 kts 258°
2026-05-05 23:39 19.09194 73.01804 2479 ft 194 kts 263°
2026-05-05 23:40 19.09082 73.00364 2292 ft 198 kts 267°
2026-05-05 23:40 19.09053 72.98931 2059 ft 194 kts 270°
2026-05-05 23:40 19.09032 72.97513 1814 ft 186 kts 269°
2026-05-05 23:40 19.09014 72.96223 1581 ft 166 kts 269°
2026-05-05 23:41 19.08996 72.95059 1378 ft 152 kts 269°
2026-05-05 23:41 19.08980 72.93950 1188 ft 151 kts 269°
2026-05-05 23:41 19.08963 72.92852 1000 ft 149 kts 269°
2026-05-05 23:41 19.08947 72.91756 819 ft 148 kts 269°
2026-05-05 23:42 19.08931 72.90671 629 ft 147 kts 269°
2026-05-05 23:42 19.08913 72.89592 455 ft 146 kts 269°
2026-05-05 23:42 19.08898 72.88521 256 ft 145 kts 269°
2026-05-05 23:42 19.08877 72.87452 70 ft 145 kts 270°
2026-05-05 23:43 19.08868 72.86503 48 ft 95 kts 269°
2026-05-05 23:43 19.08864 72.86111 46 ft 29 kts 270°
2026-05-05 23:43 19.08886 72.85971 45 ft 14 kts 287°
2026-05-05 23:43 19.08912 72.85906 48 ft 10 kts 293°
2026-05-05 23:44 19.08938 72.85858 48 ft 0 kts 301°
2026-05-05 23:45 19.08945 72.85845 48 ft 4 kts 301°
2026-05-05 23:45 19.08948 72.85839 48 ft 0 kts 301°
2026-05-05 23:45 19.08949 72.85837 48 ft 2 kts 300°
2026-05-05 23:45 19.08962 72.85813 46 ft 6 kts 300°
2026-05-05 23:46 19.08986 72.85770 48 ft 8 kts 300°
2026-05-05 23:46 19.09020 72.85708 48 ft 10 kts 295°
2026-05-05 23:46 19.09031 72.85630 49 ft 11 kts 287°
2026-05-05 23:46 19.09088 72.85590 49 ft 10 kts 313°
2026-05-05 23:47 19.09093 72.85515 49 ft 12 kts 269°
2026-05-05 23:47 19.09091 72.85424 49 ft 10 kts 268°
2026-05-05 23:47 19.09092 72.85379 49 ft 1 kts 271°
2026-05-05 23:47 19.09101 72.85369 47 ft 3 kts 323°
2026-05-05 23:48 19.09126 72.85366 49 ft 3 kts
2026-05-05 23:48 19.09151 72.85366 47 ft 4 kts 359°
2026-05-05 23:48 19.09156 72.85366 48 ft 0 kts 358°